カタログに戻る

COSMOS 982

運用中軍事LEO
NORAD 10589·PAYLOAD·🇷🇺 Russia

打ち上げ Jan 10, 1978 から Plesetsk Cosmodrome

Loading…

次のパス (今後24時間)

TLE

最新Source: Space-Track

元期: Sep 14, 2026, 14:09 UTC

1 10589U 78005G   26257.59017439 -.00000007  00000-0  57275-4 0  9991
2 10589  74.0281 109.4311 0032555 130.0848 258.1111 12.44139320210720

AllMySatでCOSMOS 982をリアルタイム追跡

Download on the App Store